Content
SEND FEEDBACK

Daily
Averages
Monthly
Summary
France

LE HAVRE, FRANCE


Home > Europe > France
Elevation: 103 meters     Latitude: 49 31N     Longitude: 000 04E

WEATHER
 
SELECT A DAY
Number of Records: 177,130;   Date Range: 3/4/97 - 9/22/14
 
SHARE

PRINT THIS DATA

[ ← Previous Day ]
WEATHER ALMANAC - 22 MARCH, 2013
[ Next Day → ]
[ °F ]   °C
Weather ElementAverageHighLow
Temperature8.9 °C12 °C (2:30 pm)6 °C (2:30 am)
Dewpoint3.3 °C5 °C (12:30 am)2 °C (8:00 am)
Humidity69.3 %93 % (2:30 am)54 % (1:00 pm)
Barometer1004.7 hPa1010.2 hPa (12:30 am)1001 hPa (3:00 pm)
Wind Speed26.1 km/h31.5 km/h (9:00 am)
Wind Gust50.1 km/h (12:30 pm)
Weather ElementAverage
Visibility8.4 km
Wind DirectionESE (114 °)

Weather ElementTotal
Precipitation---
Heating Degree Days9.3 (Base 18.3)
Averaged from 47 records on 22 March, 2013
WEATHER CONDITIONS BREAKOUT
WIND DIRECTION BREAKOUT
WEATHER BY HOUR - 22 MARCH, 2013
[ °F ]   °C
Local TimeTemperatureDewpointHumidityBarometerVisibilityWind DirectionWind SpeedGust SpeedPrecipitationEventsConditions
12:30 AM7 °C5 °C87 %1010.2 hPa2.6 kmESE (120°)24.1 km/hOvercast
1:00 AM7 °C5 °C87 %1010.2 hPa2.7 kmESE (120°)25.9 km/hRainLight Rain
1:30 AM7 °C5 °C87 %1010.2 hPa2.7 kmESE (110°)22.2 km/hRainLight Rain
2:00 AM7 °C5 °C87 %1010.2 hPaESE (120°)24.1 km/hOvercast
2:30 AM6 °C5 °C93 %1009.1 hPaESE (120°)27.8 km/hMostly Cloudy
3:00 AM6 °C5 °C93 %1009.1 hPa3.5 kmESE (110°)27.8 km/hMist
3:30 AM6 °C4 °C87 %1008.1 hPaESE (110°)24.1 km/hMist
4:00 AM6 °C4 °C87 %1008.1 hPaESE (110°)25.9 km/hMist
4:30 AM6 °C4 °C87 %1008.1 hPaESE (110°)24.1 km/hMist
5:00 AM6 °C4 °C87 %1007.1 hPaESE (110°)22.2 km/hMist
5:30 AM6 °C4 °C87 %1007.1 hPa4.5 kmESE (110°)22.2 km/hMist
6:00 AM6 °C3 °C81 %1006.1 hPa5 kmESE (110°)25.9 km/hMist
6:30 AM6 °C3 °C81 %1006.1 hPa5 kmESE (110°)24.1 km/hMist
7:00 AM6 °C3 °C81 %1006.1 hPa5 kmESE (110°)27.8 km/hMist
7:30 AM6 °C3 °C81 %1006.1 hPa6 kmESE (110°)27.8 km/h
8:00 AM6 °C2 °C76 %1006.1 hPa6.9 kmESE (110°)29.6 km/h
8:30 AM6 °C2 °C76 %1005.1 hPa6.9 kmESE (110°)29.6 km/h
9:00 AM6 °C3 °C81 %1006.1 hPa8 kmESE (120°)31.5 km/h
9:30 AM7 °C3 °C76 %1005.1 hPa9 kmESE (120°)31.5 km/h
10:00 AM8 °C3 °C71 %1005.1 hPa10 kmESE (120°)31.5 km/h
10:30 AM8 °C3 °C71 %1004.1 hPa10 kmESE (120°)31.5 km/h
11:00 AM8 °C3 °C71 %1004.1 hPa10 kmESE (120°)24.1 km/h
11:30 AM9 °C3 °C66 %1004.1 hPa10 kmESE (120°)29.6 km/h
12:00 PM9 °C3 °C66 %1004.1 hPa10 kmESE (110°)27.8 km/h46.3 km/h
12:30 PM10 °C3 °C62 %1004.1 hPa10 kmESE (120°)29.6 km/h50.1 km/h
1:00 PM11 °C2 °C54 %1003 hPa10 kmESE (120°)31.5 km/h
1:30 PM11 °C2 °C54 %1003 hPa10 kmESE (120°)25.9 km/h
2:00 PM11 °C3 °C58 %1003 hPa10 kmESE (120°)31.5 km/h
2:30 PM12 °C3 °C54 %1002 hPa10 kmESE (110°)31.5 km/h
3:00 PM12 °C3 °C54 %1001 hPa10 kmESE (120°)29.6 km/h
3:30 PM12 °C3 °C54 %1002 hPa10 kmEast (100°)29.6 km/h
4:00 PM12 °C3 °C54 %1001 hPa10 kmESE (110°)24.1 km/h
4:30 PM12 °C3 °C54 %1001 hPa10 kmESE (110°)25.9 km/h
5:00 PM12 °C3 °C54 %1001 hPa10 kmESE (110°)22.2 km/h
5:30 PM12 °C3 °C54 %1001 hPa10 kmESE (120°)31.5 km/hMostly Cloudy
6:00 PM12 °C3 °C54 %1001 hPa10 kmESE (120°)25.9 km/h
6:30 PM12 °C3 °C54 %1002 hPa10 kmESE (120°)22.2 km/h
7:00 PM12 °C3 °C54 %1002 hPa10 kmESE (120°)25.9 km/h
7:30 PM12 °C3 °C54 %1002 hPa10 kmESE (120°)27.8 km/h
8:00 PM11 °C3 °C58 %1003 hPa10 kmESE (120°)24.1 km/h
8:30 PM11 °C3 °C58 %1003 hPa10 kmESE (110°)20.4 km/h
9:00 PM11 °C3 °C58 %1003 hPa10 kmESE (110°)22.2 km/h
9:30 PM10 °C3 °C62 %1003 hPa10 kmEast (100°)20.4 km/h
10:00 PM10 °C3 °C62 %1003 hPa10 kmEast (100°)22.2 km/h
10:30 PM10 °C3 °C62 %1003 hPa9 kmEast (100°)22.2 km/h
11:00 PM10 °C3 °C62 %1003 hPa10 kmESE (120°)18.5 km/h
11:30 PM10 °C4 °C66 %1003 hPa9 kmESE (120°)18.5 km/h
Hourly data recorded from LFOH, located 0 kilometers away from Le Havre, France







STORIES FROM OUR PARTNERS